Weather History for Hutchinson, KS

Change the Weather History Date:

Sunday, April 28, 2013

  Actual Average Record
Temperature  
Mean Temperature 64 °F -  
Max Temperature 82 °F 69 °F 82 °F (2004)
Min Temperature 46 °F 44 °F 32 °F (2008)
Degree Days  
Heating Degree Days 2    
Growing Degree Days 14 (Base 50)    
Moisture  
Dew Point 50 °F    
Average Humidity 72    
Maximum Humidity 94    
Minimum Humidity 38    
Precipitation  
Precipitation 0.00 in - - ()
Sea Level Pressure  
Sea Level Pressure 29.88 in    
Wind  
Wind Speed 11 mph (South)    
Max Wind Speed 20 mph    
Max Gust Speed 31 mph    
Visibility 8 miles    
Events      
Averages and records for this station are not official NWS values.
T = Trace of Precipitation, MM = Missing Value Source: NWS Daily Summary

Daily Weather History Graph

Daily Weather History Graph

Search for Another Location

Airport:

Trip Planner

Search our weather history database for the weather conditions in past years. The results will help you decide how hot, cold, wet, or windy it might be!

Date:

Astronomy

Apr. 28, 2013 Rise Set
Actual Time 6:38 AM CDT 8:19 PM CDT
Civil Twilight 6:10 AM CDT 8:48 PM CDT
Nautical Twilight 5:36 AM CDT 9:22 PM CDT
Astronomical Twilight 5:00 AM CDT 9:58 PM CDT
Moon 11:49 PM CDT (4/28) 8:58 AM CDT (4/28)
Length of Visible Light 14h 37m
Length of Day
13h 41m
Waning Gibbous, 88% of the Moon is Illuminated
Apr 28
Waning Gibbous
May 2
Last Quarter
May 9
New
May 17
First Quarter
May 24
Full

Hourly Weather History & Observations

Time (CDT) Temp. Windchill Dew Point Humidity Pressure Visibility Wind Dir Wind Speed Gust Speed Precip Events Conditions
12:52 AM 50.0 °F - 46.9 °F 89% 29.99 in 7.0 mi SSE 5.8 mph - N/A   Clear
1:52 AM 50.0 °F - 46.9 °F 89% 29.98 in 6.0 mi South 6.9 mph - N/A   Clear
2:52 AM 50.0 °F - 48.0 °F 93% 29.96 in 8.0 mi South 8.1 mph - N/A   Clear
3:52 AM 48.9 °F - 46.9 °F 93% 29.96 in 9.0 mi South 8.1 mph - N/A   Clear
4:52 AM 48.0 °F - 45.0 °F 89% 29.96 in 7.0 mi South 6.9 mph - N/A   Clear
5:52 AM 46.0 °F 41.9 °F 44.1 °F 93% 29.95 in 6.0 mi South 8.1 mph - N/A   Clear
6:52 AM 48.9 °F - 46.9 °F 93% 29.94 in 7.0 mi South 10.4 mph - N/A   Clear
7:25 AM 50.0 °F - 46.4 °F 87% 29.98 in 6.0 mi SSW 13.8 mph - N/A   Scattered Clouds
7:30 AM 50.0 °F - 46.4 °F 87% 29.98 in 4.0 mi SSW 16.1 mph - N/A   Mostly Cloudy
7:43 AM 50.0 °F - 48.2 °F 94% 29.98 in 2.0 mi SSW 12.7 mph - N/A   Overcast
7:52 AM 50.0 °F - 48.0 °F 93% 29.95 in 2.0 mi SSW 11.5 mph - N/A   Overcast
8:03 AM 50.0 °F - 48.2 °F 94% 29.99 in 1.8 mi SSW 16.1 mph - N/A   Overcast
8:26 AM 51.8 °F - 48.2 °F 88% 29.99 in 2.5 mi SSW 15.0 mph - N/A   Overcast
8:52 AM 52.0 °F - 50.0 °F 93% 29.95 in 3.0 mi South 12.7 mph - N/A   Overcast
9:19 AM 55.4 °F - 51.8 °F 88% 29.97 in 7.0 mi South 13.8 mph - N/A   Overcast
9:49 AM 57.2 °F - 53.6 °F 88% 29.95 in 9.0 mi South 12.7 mph 31.1 mph N/A   Scattered Clouds
9:52 AM 59.0 °F - 53.1 °F 81% 29.92 in 10.0 mi South 15.0 mph - N/A   Partly Cloudy
10:52 AM 63.0 °F - 53.1 °F 70% 29.90 in 10.0 mi SSW 18.4 mph 23.0 mph N/A   Clear
11:52 AM 68.0 °F - 54.0 °F 61% 29.88 in 10.0 mi South 15.0 mph - N/A   Clear
12:52 PM 73.9 °F - 52.0 °F 46% 29.86 in 10.0 mi SSW 19.6 mph - N/A   Clear
1:52 PM 77.0 °F - 50.0 °F 39% 29.83 in 10.0 mi South 18.4 mph - N/A   Clear
2:52 PM 78.1 °F - 51.1 °F 39% 29.81 in 10.0 mi SSW 15.0 mph 23.0 mph N/A   Clear
3:52 PM 80.1 °F - 53.1 °F 39% 29.78 in 10.0 mi SW 13.8 mph - N/A   Clear
4:52 PM 81.0 °F - 54.0 °F 39% 29.75 in 10.0 mi SSW 13.8 mph - N/A   Clear
5:52 PM 81.0 °F - 53.1 °F 38% 29.74 in 10.0 mi South 15.0 mph - N/A   Clear
6:52 PM 80.1 °F - 52.0 °F 38% 29.72 in 10.0 mi South 11.5 mph - N/A   Clear
7:52 PM 73.9 °F - 55.0 °F 52% 29.71 in 10.0 mi SSE 9.2 mph - N/A   Clear
8:52 PM 66.9 °F - 54.0 °F 63% 29.72 in 10.0 mi SSE 6.9 mph - N/A   Clear
9:52 PM 68.0 °F - 52.0 °F 56% 29.73 in 10.0 mi South 11.5 mph - N/A   Clear
10:52 PM 64.9 °F - 53.1 °F 65% 29.73 in 10.0 mi South 9.2 mph - N/A   Clear
11:52 PM 64.0 °F - 53.1 °F 67% 29.72 in 10.0 mi South 10.4 mph - N/A   Clear